TimeAKST,TemperatureF,Dew PointF,Humidity,Sea Level PressureIn,VisibilityMPH,Wind Direction,Wind SpeedMPH,Gust SpeedMPH,PrecipitationIn,Events,Conditions,WindDirDegrees,DateUTC
12:53 AM,33.1,30.0,89,29.70,10.0,NNE,17.3,-,0.01,,Overcast,30,2012-11-10 09:53:00
1:53 AM,32.0,28.9,88,29.69,10.0,NNE,16.1,-,N/A,,Overcast,20,2012-11-10 10:53:00
3:53 AM,32.0,28.9,88,29.66,10.0,NNE,13.8,-,N/A,,Overcast,30,2012-11-10 12:53:00
4:53 AM,32.0,28.9,88,29.65,10.0,NNE,13.8,-,N/A,,Overcast,20,2012-11-10 13:53:00
5:53 AM,32.0,28.9,88,29.64,10.0,NNE,12.7,-,N/A,,Overcast,20,2012-11-10 14:53:00
6:53 AM,32.0,28.9,88,29.62,10.0,NNE,15.0,-,N/A,,Overcast,30,2012-11-10 15:53:00
7:53 AM,32.0,28.9,88,29.62,10.0,NNE,15.0,-,N/A,,Overcast,30,2012-11-10 16:53:00
8:53 AM,33.1,30.0,89,29.61,10.0,NNE,15.0,-,N/A,,Overcast,20,2012-11-10 17:53:00
9:53 AM,33.1,30.0,89,29.61,10.0,NNE,18.4,-,N/A,,Overcast,20,2012-11-10 18:53:00
10:53 AM,34.0,30.0,85,29.60,10.0,NNE,16.1,-,N/A,,Overcast,20,2012-11-10 19:53:00
11:53 AM,34.0,30.9,89,29.60,10.0,NNE,9.2,-,N/A,,Overcast,20,2012-11-10 20:53:00
12:53 PM,35.1,30.9,85,29.59,10.0,NNE,12.7,-,N/A,,Overcast,20,2012-11-10 21:53:00
1:53 PM,35.1,30.0,82,29.57,10.0,NNE,12.7,-,N/A,,Overcast,30,2012-11-10 22:53:00
2:53 PM,36.0,28.9,76,29.56,10.0,NE,11.5,-,N/A,,Overcast,40,2012-11-10 23:53:00
3:53 PM,35.1,28.9,78,29.55,10.0,NNE,13.8,-,N/A,,Overcast,30,2012-11-11 00:53:00
4:53 PM,35.1,28.0,76,29.54,10.0,NE,12.7,-,N/A,,Overcast,40,2012-11-11 01:53:00
5:53 PM,34.0,28.0,79,29.55,10.0,NE,9.2,-,N/A,,Scattered Clouds,50,2012-11-11 02:53:00
6:53 PM,34.0,28.9,82,29.55,10.0,NE,9.2,-,N/A,,Overcast,40,2012-11-11 03:53:00
7:53 PM,35.1,28.9,78,29.55,10.0,NE,8.1,-,N/A,,Overcast,50,2012-11-11 04:53:00
8:53 PM,34.0,28.9,82,29.55,10.0,NE,6.9,-,N/A,,Overcast,40,2012-11-11 05:53:00
9:53 PM,33.1,28.0,82,29.55,10.0,NNE,9.2,-,N/A,,Overcast,30,2012-11-11 06:53:00
10:53 PM,33.1,28.0,82,29.56,10.0,NNE,9.2,-,N/A,,Overcast,30,2012-11-11 07:53:00
11:53 PM,30.9,27.0,85,29.57,10.0,NE,8.1,-,N/A,,Overcast,40,2012-11-11 08:53:00